| time (UTC) | temp F | wind direction | speed MPH | gust MPH | rain 1hr in | rain 24hr in | rain mn in | humidity % | barometer mb |
| 20260504050531 | 40 | 272 | 4.0 | 12.0 | 0.00 | 0.00 | 0.00 | 74 | 1008.5 |
| 20260504045530 | 40 | 238 | 5.0 | 12.0 | 0.00 | 0.00 | 0.00 | 69 | 1008.4 |
| 20260504045030 | 40 | 224 | 5.0 | 11.0 | 0.00 | 0.00 | 0.00 | 68 | 1008.5 |
| 20260504044542 | 40 | 241 | 5.0 | 13.0 | 0.00 | 0.00 | 0.00 | 67 | 1008.5 |
| 20260504044030 | 40 | 270 | 4.0 | 13.0 | 0.00 | 0.00 | 0.00 | 66 | 1008.5 |
| 20260504043530 | 40 | 219 | 3.0 | 12.0 | 0.00 | 0.00 | 0.00 | 66 | 1008.5 |
| 20260504043043 | 40 | 257 | 3.0 | 12.0 | 0.00 | 0.00 | 0.00 | 66 | 1008.4 |
| 20260504042531 | 40 | 223 | 4.0 | 11.0 | 0.00 | 0.00 | 0.00 | 65 | 1008.5 |
| 20260504042030 | 40 | 205 | 4.0 | 11.0 | 0.00 | 0.00 | 0.00 | 65 | 1008.6 |
| 20260504041543 | 40 | 242 | 4.0 | 11.0 | 0.00 | 0.00 | 0.00 | 65 | 1008.4 |
| 20260504041028 | 40 | 235 | 4.0 | 18.0 | 0.00 | 0.00 | 0.00 | 65 | 1008.4 |
| 20260504040528 | 40 | 245 | 5.0 | 18.0 | 0.00 | 0.00 | 0.00 | 64 | 1008.4 |
| 20260504040100 | 40 | 261 | 6.0 | 17.0 | 0.00 | 0.00 | 0.00 | 63 | 1008.1 |
| 20260504035530 | 40 | 243 | 3.0 | 12.0 | 0.00 | 0.00 | 0.00 | 63 | 1008.3 |
| 20260504035028 | 40 | 234 | 5.0 | 12.0 | 0.00 | 0.00 | 0.00 | 62 | 1008.2 |
| 20260504034538 | 40 | 191 | 6.0 | 10.0 | 0.00 | 0.00 | 0.00 | 61 | 1008.2 |
| 20260504034028 | 40 | 257 | 4.0 | 16.0 | 0.00 | 0.00 | 0.00 | 60 | 1008.1 |
| 20260504033529 | 40 | 252 | 5.0 | 16.0 | 0.00 | 0.00 | 0.00 | 59 | 1007.9 |
| 20260504033045 | 40 | 246 | 5.0 | 12.0 | 0.00 | 0.00 | 0.00 | 58 | 1007.9 |
| 20260504032550 | 40 | 279 | 4.0 | 12.0 | 0.00 | 0.00 | 0.00 | 56 | 1007.9 |
| 20260504032032 | 40 | 238 | 5.0 | 12.0 | 0.00 | 0.00 | 0.00 | 55 | 1007.9 |
| 20260504031543 | 40 | 261 | 5.0 | 16.0 | 0.00 | 0.00 | 0.00 | 54 | 1008.0 |
| 20260504031031 | 40 | 257 | 7.0 | 16.0 | 0.00 | 0.00 | 0.00 | 54 | 1008.0 |
| 20260504030534 | 39 | 241 | 5.0 | 13.0 | 0.00 | 0.00 | 0.00 | 54 | 1007.9 |
| 20260504030044 | 39 | 254 | 5.0 | 13.0 | 0.00 | 0.00 | 0.00 | 54 | 1008.0 |
| 20260504025532 | 39 | 224 | 4.0 | 10.0 | 0.00 | 0.00 | 0.00 | 54 | 1007.9 |
| 20260504025033 | 39 | 239 | 5.0 | 11.0 | 0.00 | 0.00 | 0.00 | 54 | 1007.9 |
| 20260504024542 | 39 | 244 | 5.0 | 11.0 | 0.00 | 0.00 | 0.00 | 53 | 1007.8 |
| 20260504024033 | 39 | 259 | 5.0 | 11.0 | 0.00 | 0.00 | 0.00 | 53 | 1007.9 |
| 20260504023532 | 39 | 252 | 4.0 | 10.0 | 0.00 | 0.00 | 0.00 | 53 | 1008.0 |
| 20260504023053 | 39 | 219 | 4.0 | 10.0 | 0.00 | 0.00 | 0.00 | 53 | 1008.1 |
| 20260504022535 | 39 | 251 | 4.0 | 14.0 | 0.00 | 0.00 | 0.00 | 53 | 1008.2 |
| 20260504022031 | 39 | 247 | 5.0 | 14.0 | 0.00 | 0.00 | 0.00 | 53 | 1008.2 |
| 20260504021545 | 39 | 253 | 6.0 | 12.0 | 0.00 | 0.00 | 0.00 | 53 | 1008.2 |
| 20260504021031 | 39 | 238 | 5.0 | 15.0 | 0.00 | 0.00 | 0.00 | 52 | 1008.1 |
| 20260504020531 | 39 | 245 | 4.0 | 15.0 | 0.00 | 0.00 | 0.00 | 53 | 1008.1 |
| 20260504020045 | 40 | 244 | 4.0 | 15.0 | 0.00 | 0.00 | 0.00 | 52 | 1008.2 |
| 20260504015531 | 40 | 235 | 5.0 | 15.0 | 0.00 | 0.00 | 0.00 | 52 | 1008.1 |
| 20260504015032 | 40 | 265 | 5.0 | 13.0 | 0.00 | 0.00 | 0.00 | 51 | 1008.1 |
| 20260504014556 | 40 | 224 | 5.0 | 16.0 | 0.00 | 0.00 | 0.00 | 51 | 1008.0 |
| 20260504014031 | 40 | 251 | 6.0 | 16.0 | 0.00 | 0.00 | 0.00 | 51 | 1008.0 |
| 20260504013532 | 40 | 253 | 5.0 | 12.0 | 0.00 | 0.00 | 0.00 | 51 | 1007.9 |
| 20260504013044 | 40 | 240 | 6.0 | 12.0 | 0.00 | 0.00 | 0.00 | 50 | 1007.9 |
| 20260504012536 | 40 | 263 | 6.0 | 14.0 | 0.00 | 0.00 | 0.00 | 50 | 1007.7 |
| 20260504012032 | 40 | 258 | 7.0 | 14.0 | 0.00 | 0.00 | 0.00 | 49 | 1007.8 |
| 20260504011541 | 40 | 265 | 7.0 | 13.0 | 0.00 | 0.00 | 0.00 | 49 | 1007.7 |
| 20260504011032 | 40 | 255 | 7.0 | 12.0 | 0.00 | 0.00 | 0.00 | 49 | 1007.7 |
| 20260504010531 | 40 | 245 | 6.0 | 13.0 | 0.00 | 0.00 | 0.00 | 49 | 1007.7 |
| 20260504010050 | 40 | 232 | 5.0 | 13.0 | 0.00 | 0.00 | 0.00 | 48 | 1007.6 |
| 20260504005535 | 40 | 242 | 5.0 | 12.0 | 0.00 | 0.00 | 0.00 | 47 | 1007.6 |
| 20260504005032 | 40 | 267 | 7.0 | 12.0 | 0.00 | 0.00 | 0.00 | 46 | 1007.5 |
| 20260504004550 | 40 | 245 | 6.0 | 13.0 | 0.00 | 0.00 | 0.00 | 47 | 1007.3 |
| 20260504004031 | 41 | 240 | 6.0 | 17.0 | 0.00 | 0.00 | 0.00 | 46 | 1007.4 |
| 20260504003534 | 41 | 259 | 7.0 | 17.0 | 0.00 | 0.00 | 0.00 | 45 | 1007.2 |
| 20260504003054 | 41 | 165 | 7.0 | 14.0 | 0.00 | 0.00 | 0.00 | 44 | 1007.2 |
| 20260504002529 | 41 | 257 | 6.0 | 14.0 | 0.00 | 0.00 | 0.00 | 45 | 1007.1 |
| 20260504002030 | 41 | 253 | 5.0 | 14.0 | 0.00 | 0.00 | 0.00 | 44 | 1007.1 |
| 20260504001600 | 41 | 261 | 4.0 | 10.0 | 0.00 | 0.00 | 0.00 | 45 | 1007.0 |
| 20260504001031 | 41 | 238 | 4.0 | 9.0 | 0.00 | 0.00 | 0.00 | 45 | 1007.1 |
| 20260504000530 | 41 | 236 | 3.0 | 9.0 | 0.00 | 0.00 | 0.00 | 46 | 1006.9 |
| 20260504000052 | 41 | 250 | 3.0 | 12.0 | 0.00 | 0.00 | 0.00 | 46 | 1007.0 |
| 20260503235529 | 41 | 257 | 3.0 | 12.0 | 0.00 | 0.00 | 0.00 | 45 | 1006.8 |
| 20260503235032 | 42 | 259 | 3.0 | 9.0 | 0.00 | 0.00 | 0.00 | 46 | 1006.8 |
| 20260503234543 | 42 | 248 | 5.0 | 10.0 | 0.00 | 0.00 | 0.00 | 46 | 1006.6 |
| 20260503234029 | 42 | 247 | 4.0 | 11.0 | 0.00 | 0.00 | 0.00 | 45 | 1006.6 |
| 20260503233531 | 43 | 267 | 5.0 | 14.0 | 0.00 | 0.00 | 0.00 | 44 | 1006.6 |
| 20260503233045 | 43 | 259 | 5.0 | 14.0 | 0.00 | 0.00 | 0.00 | 43 | 1006.6 |
| 20260503232532 | 43 | 211 | 5.0 | 12.0 | 0.00 | 0.00 | 0.00 | 44 | 1006.6 |
| 20260503232030 | 43 | 249 | 5.0 | 12.0 | 0.00 | 0.00 | 0.00 | 44 | 1006.5 |
| 20260503231546 | 43 | 254 | 6.0 | 12.0 | 0.00 | 0.00 | 0.00 | 42 | 1006.4 |
| 20260503231030 | 44 | 246 | 6.0 | 12.0 | 0.00 | 0.00 | 0.00 | 43 | 1006.4 |
| 20260503230530 | 44 | 257 | 6.0 | 12.0 | 0.00 | 0.00 | 0.00 | 42 | 1006.4 |
| 20260503230045 | 44 | 261 | 6.0 | 13.0 | 0.00 | 0.00 | 0.00 | 43 | 1006.5 |
| 20260503225529 | 44 | 229 | 4.0 | 13.0 | 0.00 | 0.00 | 0.00 | 44 | 1006.4 |
| 20260503225033 | 44 | 265 | 6.0 | 13.0 | 0.00 | 0.00 | 0.00 | 43 | 1006.4 |
| 20260503224545 | 44 | 240 | 4.0 | 12.0 | 0.00 | 0.00 | 0.00 | 44 | 1006.4 |
| 20260503224029 | 43 | 262 | 5.0 | 13.0 | 0.00 | 0.00 | 0.00 | 45 | 1006.4 |
| 20260503223531 | 43 | 269 | 7.0 | 13.0 | 0.00 | 0.00 | 0.00 | 45 | 1006.4 |
| 20260503223044 | 43 | 265 | 4.0 | 19.0 | 0.00 | 0.00 | 0.00 | 45 | 1006.4 |
| 20260503222530 | 43 | 244 | 8.0 | 19.0 | 0.00 | 0.00 | 0.00 | 45 | 1006.4 |
| 20260503222035 | 43 | 238 | 7.0 | 18.0 | 0.00 | 0.00 | 0.00 | 44 | 1006.2 |
| 20260503221546 | 43 | 276 | 7.0 | 18.0 | 0.00 | 0.00 | 0.00 | 44 | 1006.4 |
| 20260503221032 | 44 | 236 | 9.0 | 18.0 | 0.00 | 0.00 | 0.00 | 44 | 1006.4 |
| 20260503220533 | 44 | 269 | 7.0 | 14.0 | 0.00 | 0.00 | 0.00 | 45 | 1006.3 |
| 20260503220049 | 44 | 214 | 7.0 | 14.0 | 0.00 | 0.00 | 0.00 | 45 | 1006.4 |
| 20260503215528 | 44 | 263 | 7.0 | 24.0 | 0.00 | 0.00 | 0.00 | 44 | 1006.5 |
| 20260503215031 | 44 | 235 | 6.0 | 24.0 | 0.00 | 0.00 | 0.00 | 45 | 1006.4 |
| 20260503214545 | 44 | 229 | 7.0 | 17.0 | 0.00 | 0.00 | 0.00 | 44 | 1006.4 |
| 20260503214031 | 45 | 221 | 7.0 | 17.0 | 0.00 | 0.00 | 0.00 | 44 | 1006.4 |
| 20260503213528 | 45 | 235 | 8.0 | 17.0 | 0.00 | 0.00 | 0.00 | 43 | 1006.4 |
| 20260503213045 | 45 | 254 | 6.0 | 14.0 | 0.00 | 0.00 | 0.00 | 46 | 1006.5 |
| 20260503212529 | 44 | 225 | 6.0 | 17.0 | 0.00 | 0.00 | 0.00 | 45 | 1006.4 |
| 20260503212030 | 44 | 262 | 6.0 | 17.0 | 0.00 | 0.00 | 0.00 | 47 | 1006.4 |
| 20260503211544 | 45 | 248 | 8.0 | 17.0 | 0.00 | 0.00 | 0.00 | 43 | 1006.4 |
| 20260503211032 | 46 | 182 | 5.0 | 16.0 | 0.00 | 0.00 | 0.00 | 45 | 1006.3 |
| 20260503210533 | 44 | 238 | 6.0 | 16.0 | 0.00 | 0.00 | 0.00 | 45 | 1006.2 |
| 20260503210043 | 45 | 242 | 6.0 | 16.0 | 0.00 | 0.00 | 0.00 | 46 | 1006.1 |
| 20260503205529 | 44 | 275 | 8.0 | 16.0 | 0.00 | 0.00 | 0.00 | 45 | 1006.2 |
| 20260503205029 | 44 | 292 | 4.0 | 15.0 | 0.00 | 0.00 | 0.00 | 49 | 1006.2 |
| 20260503204543 | 42 | 246 | 6.0 | 15.0 | 0.00 | 0.00 | 0.00 | 50 | 1006.4 |
| 20260503204031 | 42 | 263 | 8.0 | 14.0 | 0.00 | 0.00 | 0.00 | 48 | 1006.2 |
| 20260503203534 | 43 | 238 | 8.0 | 13.0 | 0.00 | 0.00 | 0.00 | 48 | 1006.3 |
| 20260503203040 | 44 | 296 | 6.0 | 20.0 | 0.00 | 0.00 | 0.00 | 47 | 1006.3 |
| 20260503202532 | 45 | 250 | 6.0 | 20.0 | 0.00 | 0.00 | 0.00 | 47 | 1006.3 |
| 20260503202029 | 45 | 202 | 7.0 | 16.0 | 0.00 | 0.00 | 0.00 | 47 | 1006.2 |
| 20260503201546 | 44 | 257 | 6.0 | 16.0 | 0.00 | 0.00 | 0.00 | 46 | 1006.4 |
| 20260503201031 | 45 | 239 | 6.0 | 17.0 | 0.00 | 0.00 | 0.00 | 46 | 1006.1 |
| 20260503200528 | 44 | 266 | 8.0 | 18.0 | 0.00 | 0.00 | 0.00 | 46 | 1006.2 |
| 20260503200050 | 44 | 227 | 8.0 | 18.0 | 0.00 | 0.00 | 0.00 | 46 | 1006.3 |
| 20260503195531 | 43 | 201 | 7.0 | 15.0 | 0.00 | 0.00 | 0.00 | 47 | 1006.2 |
| 20260503195034 | 44 | 223 | 6.0 | 20.0 | 0.00 | 0.00 | 0.00 | 47 | 1006.4 |
| 20260503194543 | 44 | 258 | 7.0 | 20.0 | 0.00 | 0.00 | 0.00 | 48 | 1006.3 |
| 20260503194029 | 44 | 252 | 11.0 | 20.0 | 0.00 | 0.00 | 0.00 | 45 | 1006.3 |
| 20260503193533 | 45 | 244 | 7.0 | 15.0 | 0.00 | 0.00 | 0.00 | 47 | 1006.2 |
| 20260503193045 | 43 | 235 | 8.0 | 16.0 | 0.00 | 0.00 | 0.00 | 48 | 1006.4 |
| 20260503192529 | 42 | 257 | 7.0 | 20.0 | 0.00 | 0.00 | 0.00 | 49 | 1006.5 |
| 20260503192031 | 42 | 250 | 7.0 | 20.0 | 0.00 | 0.00 | 0.00 | 48 | 1006.6 |
| 20260503191549 | 43 | 257 | 7.0 | 19.0 | 0.00 | 0.00 | 0.00 | 48 | 1006.4 |
| 20260503191031 | 43 | 282 | 10.0 | 20.0 | 0.00 | 0.00 | 0.00 | 46 | 1006.4 |
| 20260503190531 | 42 | 241 | 10.0 | 20.0 | 0.00 | 0.00 | 0.00 | 48 | 1006.5 |
| 20260503190043 | 42 | 242 | 6.0 | 17.0 | 0.00 | 0.00 | 0.00 | 48 | 1006.4 |
| 20260503185530 | 43 | 254 | 8.0 | 17.0 | 0.00 | 0.00 | 0.00 | 49 | 1006.5 |
| 20260503185032 | 42 | 247 | 6.0 | 15.0 | 0.00 | 0.00 | 0.00 | 50 | 1006.5 |
| 20260503184545 | 41 | 259 | 8.0 | 18.0 | 0.00 | 0.00 | 0.00 | 50 | 1006.4 |
| 20260503184032 | 41 | 257 | 9.0 | 23.0 | 0.00 | 0.00 | 0.00 | 50 | 1006.5 |
| 20260503183529 | 41 | 252 | 10.0 | 23.0 | 0.00 | 0.00 | 0.00 | 49 | 1006.5 |
| 20260503183102 | 41 | 263 | 10.0 | 18.0 | 0.00 | 0.00 | 0.00 | 50 | 1006.5 |
| 20260503182532 | 41 | 236 | 8.0 | 17.0 | 0.00 | 0.00 | 0.00 | 49 | 1006.5 |
| 20260503182031 | 42 | 236 | 9.0 | 18.0 | 0.00 | 0.00 | 0.00 | 51 | 1006.4 |
| 20260503181608 | 42 | 273 | 10.0 | 20.0 | 0.00 | 0.00 | 0.00 | 51 | 1006.5 |
| 20260503181031 | 41 | 227 | 9.0 | 23.0 | 0.00 | 0.00 | 0.00 | 51 | 1006.4 |
| 20260503180603 | 41 | 246 | 10.0 | 23.0 | 0.00 | 0.00 | 0.00 | 51 | 1006.2 |
| 20260503180043 | 40 | 258 | 5.0 | 23.0 | 0.00 | 0.00 | 0.00 | 53 | 1006.4 |
| 20260503175531 | 40 | 267 | 8.0 | 23.0 | 0.00 | 0.00 | 0.00 | 53 | 1006.4 |
| 20260503175029 | 40 | 296 | 11.0 | 23.0 | 0.00 | 0.00 | 0.00 | 53 | 1006.4 |
| 20260503174543 | 41 | 252 | 9.0 | 18.0 | 0.00 | 0.00 | 0.00 | 52 | 1006.2 |
| 20260503174029 | 41 | 227 | 5.0 | 12.0 | 0.00 | 0.00 | 0.00 | 55 | 1006.5 |
| 20260503173529 | 41 | 205 | 6.0 | 15.0 | 0.00 | 0.00 | 0.00 | 55 | 1006.2 |
| 20260503173039 | 40 | 273 | 7.0 | 15.0 | 0.00 | 0.00 | 0.00 | 54 | 1006.4 |
| 20260503172534 | 41 | 238 | 6.0 | 24.0 | 0.00 | 0.00 | 0.00 | 53 | 1006.3 |
| 20260503172034 | 40 | 261 | 8.0 | 24.0 | 0.00 | 0.00 | 0.00 | 52 | 1006.4 |
| 20260503171547 | 41 | 307 | 8.0 | 15.0 | 0.00 | 0.00 | 0.00 | 52 | 1006.4 |
| 20260503171030 | 42 | 279 | 7.0 | 20.0 | 0.00 | 0.00 | 0.00 | 51 | 1006.2 |
| 20260503170529 | 41 | 319 | 8.0 | 20.0 | 0.00 | 0.00 | 0.00 | 51 | 1006.3 |
| 20260503150531 | 39 | 217 | 7.0 | 18.0 | 0.00 | 0.00 | 0.00 | 58 | 1006.5 |
| 20260503131033 | 36 | 260 | 7.0 | 16.0 | 0.00 | 0.00 | 0.00 | 73 | 1007.1 |
| 20260503130532 | 36 | 274 | 6.0 | 16.0 | 0.00 | 0.00 | 0.00 | 73 | 1007.0 |
| 20260503110535 | 33 | 157 | 4.0 | 14.0 | 0.00 | 0.03 | 0.00 | 84 | 1006.4 |
| 20260503081538 | 32 | 257 | 3.0 | 11.0 | 0.00 | 0.06 | 0.00 | 83 | 1006.9 |
| 20260503081033 | 32 | 217 | 3.0 | 11.0 | 0.00 | 0.06 | 0.00 | 82 | 1007.0 |
| 20260503080533 | 32 | 238 | 3.0 | 11.0 | 0.00 | 0.06 | 0.00 | 82 | 1007.1 |
| 20260503072533 | 33 | 271 | 3.0 | 10.0 | 0.00 | 0.09 | 0.00 | 79 | 1007.3 |
| 20260503072032 | 33 | 221 | 3.0 | 10.0 | 0.00 | 0.09 | 0.00 | 78 | 1007.5 |
| 20260503071545 | 33 | 234 | 4.0 | 8.0 | 0.00 | 0.09 | 0.00 | 78 | 1007.5 |
| 20260503071032 | 33 | 250 | 2.0 | 9.0 | 0.00 | 0.09 | 0.00 | 77 | 1007.6 |
| 20260503070532 | 33 | 279 | 3.0 | 9.0 | 0.00 | 0.09 | 0.00 | 77 | 1007.5 |